• In United Kingdom
  • List of Countries
  • For 7 days
  • Water Temperature
  • Satellite Maps
  • Weather Map
  • Weather Widgets
  • user-avatar
    Login

    Hourly Weather Viedma

    Today, 17 January, Wednesday

    Time Temperature Precipitation Wind Pressure Humidity
    00:00 +24°C° 0 mm 3 mps 754 mmHg 43%
    01:00 +24°C° 0 mm 3 mps 754 mmHg 44%
    02:00 +23°C° 0 mm 2 mps 754 mmHg 45%
    03:00 +22°C° 0 mm 3 mps 754 mmHg 49%
    04:00 +22°C° 0 mm 3 mps 754 mmHg 52%
    05:00 +21°C° 0 mm 4 mps 754 mmHg 55%
    06:00 +23°C° 0 mm 5 mps 755 mmHg 49%
    07:00 +24°C° 0 mm 6 mps 755 mmHg 43%
    08:00 +26°C° 0 mm 7 mps 756 mmHg 37%
    09:00 +27°C° 0 mm 6 mps 756 mmHg 34%
    10:00 +28°C° 0 mm 6 mps 756 mmHg 32%
    11:00 +28°C° 0 mm 6 mps 756 mmHg 29%
    12:00 +29°C° 0 mm 5 mps 756 mmHg 29%
    13:00 +29°C° 0 mm 4 mps 756 mmHg 28%
    14:00 +29°C° 0 mm 4 mps 756 mmHg 27%
    15:00 +30°C° 0 mm 3 mps 755 mmHg 27%
    16:00 +30°C° 0 mm 3 mps 755 mmHg 26%
    17:00 +30°C° 0 mm 3 mps 754 mmHg 26%
    18:00 +29°C° 0 mm 4 mps 755 mmHg 29%
    19:00 +27°C° 0 mm 4 mps 755 mmHg 32%
    20:00 +26°C° 0 mm 5 mps 755 mmHg 35%
    21:00 +25°C° 0 mm 5 mps 755 mmHg 38%
    22:00 +23°C° 0 mm 5 mps 755 mmHg 40%
    23:00 +23°C° 0 mm 5 mps 756 mmHg 43%

    Tomorrow, 18 January, Thursday

    Time Temperature Precipitation Wind Pressure Humidity
    00:00 +22°C° 0 mm 4 mps 756 mmHg 44%
    01:00 +22°C° 0 mm 4 mps 756 mmHg 44%
    02:00 +22°C° 0 mm 3 mps 756 mmHg 45%
    03:00 +22°C° 0 mm 3 mps 756 mmHg 46%
    04:00 +22°C° 0 mm 4 mps 757 mmHg 47%
    05:00 +21°C° 0 mm 4 mps 757 mmHg 47%
    06:00 +23°C° 0 mm 4 mps 757 mmHg 44%
    07:00 +25°C° 0 mm 5 mps 757 mmHg 41%
    08:00 +26°C° 0 mm 6 mps 758 mmHg 37%
    09:00 +27°C° 0 mm 5 mps 758 mmHg 35%
    10:00 +28°C° 0 mm 5 mps 758 mmHg 34%
    11:00 +29°C° 0 mm 5 mps 758 mmHg 32%
    12:00 +29°C° 0 mm 5 mps 757 mmHg 31%
    13:00 +30°C° 0 mm 5 mps 757 mmHg 30%
    14:00 +30°C° 0 mm 5 mps 757 mmHg 29%
    15:00 +30°C° 0 mm 5 mps 757 mmHg 29%
    16:00 +30°C° 0 mm 4 mps 756 mmHg 28%
    17:00 +30°C° 0 mm 4 mps 756 mmHg 28%
    18:00 +29°C° 0 mm 4 mps 756 mmHg 31%
    19:00 +28°C° 0 mm 3 mps 756 mmHg 33%
    20:00 +27°C° 0 mm 3 mps 756 mmHg 36%
    21:00 +26°C° 0 mm 4 mps 756 mmHg 39%
    22:00 +25°C° 0 mm 5 mps 756 mmHg 43%
    23:00 +23°C° 0 mm 5 mps 756 mmHg 46%

    Day after tomorrow, 19 January, Friday

    Time Temperature Precipitation Wind Pressure Humidity
    00:00 +23°C° 0 mm 5 mps 756 mmHg 46%
    01:00 +23°C° 0 mm 5 mps 756 mmHg 46%
    02:00 +23°C° 0 mm 5 mps 756 mmHg 46%
    03:00 +23°C° 0 mm 5 mps 756 mmHg 47%
    04:00 +23°C° 0 mm 4 mps 756 mmHg 47%
    05:00 +24°C° 0 mm 3 mps 756 mmHg 47%
    06:00 +25°C° 0 mm 3 mps 756 mmHg 44%
    07:00 +26°C° 0 mm 2 mps 757 mmHg 41%
    08:00 +27°C° 0 mm 1 mps 757 mmHg 37%
    09:00 +29°C° 0 mm 2 mps 757 mmHg 34%
    10:00 +30°C° 0 mm 3 mps 757 mmHg 30%
    11:00 +33°C° 0 mm 3 mps 757 mmHg 27%
    12:00 +33°C° 0 mm 4 mps 756 mmHg 26%
    13:00 +34°C° 0 mm 4 mps 756 mmHg 26%
    14:00 +34°C° 0 mm 4 mps 755 mmHg 25%
    15:00 +34°C° 0 mm 4 mps 755 mmHg 27%
    16:00 +33°C° 0 mm 5 mps 755 mmHg 28%
    17:00 +32°C° 0 mm 5 mps 754 mmHg 29%
    18:00 +30°C° 0 mm 5 mps 755 mmHg 33%
    19:00 +28°C° 0 mm 5 mps 755 mmHg 36%
    20:00 +27°C° 0 mm 5 mps 755 mmHg 40%
    21:00 +26°C° 0 mm 5 mps 755 mmHg 42%
    22:00 +26°C° 0 mm 5 mps 755 mmHg 44%
    23:00 +25°C° 0 mm 5 mps 754 mmHg 46%

    20 January, Saturday

    Time Temperature Precipitation Wind Pressure Humidity
    00:00 +25°C° 0 mm 5 mps 754 mmHg 47%
    01:00 +25°C° 0 mm 4 mps 753 mmHg 48%
    02:00 +25°C° 0 mm 4 mps 753 mmHg 49%
    03:00 +23°C° 0 mm 4 mps 753 mmHg 50%
    04:00 +23°C° 0 mm 4 mps 752 mmHg 51%
    05:00 +24°C° 0 mm 3 mps 752 mmHg 52%
    06:00 +26°C° 0 mm 3 mps 752 mmHg 47%
    07:00 +28°C° 0 mm 2 mps 752 mmHg 42%
    08:00 +30°C° 0 mm 2 mps 753 mmHg 37%
    09:00 +32°C° 0 mm 2 mps 753 mmHg 33%
    10:00 +35°C° 0 mm 3 mps 753 mmHg 29%
    11:00 +37°C° 0 mm 3 mps 753 mmHg 25%
    12:00 +37°C° 0 mm 4 mps 752 mmHg 26%
    13:00 +37°C° 0 mm 5 mps 752 mmHg 26%
    14:00 +38°C° 0 mm 7 mps 752 mmHg 27%
    15:00 +35°C° 0 mm 7 mps 752 mmHg 31%
    16:00 +34°C° 0 mm 7 mps 752 mmHg 34%
    17:00 +32°C° 0 mm 8 mps 752 mmHg 37%
    18:00 +30°C° 0 mm 7 mps 752 mmHg 43%
    19:00 +28°C° 0 mm 6 mps 753 mmHg 48%
    20:00 +26°C° 0 mm 6 mps 753 mmHg 53%
    21:00 +26°C° 0 mm 5 mps 754 mmHg 55%
    22:00 +25°C° 0 mm 5 mps 754 mmHg 57%
    23:00 +25°C° 0 mm 4 mps 754 mmHg 59%

    21 January, Sunday

    Time Temperature Precipitation Wind Pressure Humidity
    00:00 +23°C° 0 mm 4 mps 754 mmHg 61%
    01:00 +23°C° 0 mm 5 mps 754 mmHg 64%
    02:00 +22°C° 0 mm 5 mps 753 mmHg 66%
    03:00 +22°C° 0 mm 5 mps 753 mmHg 67%
    04:00 +22°C° 0 mm 4 mps 753 mmHg 68%
    05:00 +21°C° 0 mm 4 mps 753 mmHg 69%
    06:00 +22°C° 0 mm 3 mps 753 mmHg 65%
    07:00 +24°C° 0 mm 3 mps 753 mmHg 60%
    08:00 +25°C° 0 mm 2 mps 753 mmHg 56%
    09:00 +28°C° 0 mm 3 mps 753 mmHg 50%
    10:00 +30°C° 0 mm 3 mps 753 mmHg 44%
    11:00 +33°C° 0 mm 4 mps 752 mmHg 38%
    12:00 +34°C° 0 mm 4 mps 752 mmHg 36%
    13:00 +35°C° 0 mm 4 mps 751 mmHg 35%
    14:00 +35°C° 0 mm 5 mps 750 mmHg 34%
    15:00 +34°C° 0.1 mm 5 mps 750 mmHg 37%
    16:00 +33°C° 0.1 mm 5 mps 750 mmHg 40%
    17:00 +32°C° 0.1 mm 6 mps 749 mmHg 43%
    18:00 +30°C° 0.3 mm 5 mps 749 mmHg 46%
    19:00 +29°C° 0.3 mm 5 mps 749 mmHg 49%
    20:00 +28°C° 0.3 mm 4 mps 749 mmHg 52%
    21:00 +28°C° 0.1 mm 5 mps 749 mmHg 51%
    22:00 +28°C° 0.1 mm 5 mps 749 mmHg 50%
    23:00 +28°C° 0.1 mm 5 mps 749 mmHg 49%

    22 January, Monday

    Time Temperature Precipitation Wind Pressure Humidity
    00:00 +28°C° 0.1 mm 5 mps 748 mmHg 47%
    01:00 +28°C° 0.1 mm 5 mps 748 mmHg 46%
    02:00 +28°C° 0.1 mm 5 mps 747 mmHg 44%
    03:00 +28°C° 0.1 mm 5 mps 747 mmHg 46%
    04:00 +27°C° 0.1 mm 5 mps 747 mmHg 48%
    05:00 +27°C° 0.1 mm 6 mps 747 mmHg 51%
    06:00 +28°C° 0.3 mm 6 mps 747 mmHg 49%
    07:00 +29°C° 0.3 mm 6 mps 748 mmHg 47%
    08:00 +30°C° 0.3 mm 6 mps 748 mmHg 46%
    09:00 +29°C° 0.2 mm 7 mps 748 mmHg 43%
    10:00 +29°C° 0.2 mm 8 mps 748 mmHg 41%
    11:00 +29°C° 0.2 mm 10 mps 748 mmHg 38%
    12:00 +28°C° 0.7 mm 10 mps 749 mmHg 38%
    13:00 +27°C° 0.7 mm 10 mps 749 mmHg 38%
    14:00 +27°C° 0.7 mm 10 mps 749 mmHg 38%
    15:00 +26°C° 0.3 mm 9 mps 749 mmHg 39%
    16:00 +24°C° 0.3 mm 9 mps 750 mmHg 40%
    17:00 +23°C° 0.3 mm 9 mps 750 mmHg 42%
    18:00 +22°C° 0 mm 9 mps 750 mmHg 47%
    19:00 +21°C° 0 mm 8 mps 751 mmHg 53%
    20:00 +20°C° 0 mm 8 mps 752 mmHg 59%
    21:00 +20°C° 0 mm 7 mps 752 mmHg 62%
    22:00 +19°C° 0 mm 6 mps 752 mmHg 65%
    23:00 +19°C° 0 mm 6 mps 752 mmHg 68%
    Show more